Weather History for Minneapolis Crystal, MN

Change the Weather History Date:

Friday, June 28, 2013

  Actual Average Record
Temperature  
Mean Temperature 72 °F -  
Max Temperature 80 °F 78 °F 92 °F (1991)
Min Temperature 66 °F 58 °F 49 °F (1993)
Cooling Degree Days 7    
Growing Degree Days 22 (Base 50)    
Moisture  
Dew Point 59 °F    
Average Humidity 66    
Maximum Humidity 87    
Minimum Humidity 52    
Precipitation  
Precipitation 0.09 in - - ()
Sea Level Pressure  
Sea Level Pressure 29.76 in    
Wind  
Wind Speed 12 mph (NW)    
Max Wind Speed 21 mph    
Max Gust Speed 30 mph    
Visibility 10 miles    
Events Rain    
Averages and records for this station are not official NWS values.
T = Trace of Precipitation, MM = Missing Value Source: NWS Daily Summary

Daily Weather History Graph

Daily Weather History Graph

Search for Another Location

Airport:

Trip Planner

Search our weather history database for the weather conditions in past years. The results will help you decide how hot, cold, wet, or windy it might be!

Date:

Astronomy

Jun. 28, 2013 Rise Set
Actual Time 5:28 AM CDT 9:04 PM CDT
Civil Twilight 4:51 AM CDT 9:41 PM CDT
Nautical Twilight 4:01 AM CDT 10:31 PM CDT
Astronomical Twilight 2:56 AM CDT 11:36 PM CDT
Moon No Moon Rise 11:54 AM CDT (6/28)
Length of Visible Light 16h 50m
Length of Day
15h 35m
Waning Gibbous, 66% of the Moon is Illuminated
Jun 28
Waning Gibbous
Jun 29
Last Quarter
Jul 8
New
Jul 15
First Quarter
Jul 22
Full

Hourly Weather History & Observations

Time (CDT) Temp. Dew Point Humidity Pressure Visibility Wind Dir Wind Speed Gust Speed Precip Events Conditions
12:53 AM 73.9 °F 55.0 °F 52% 29.78 in 10.0 mi NW 11.5 mph - N/A   Clear
1:53 AM 71.1 °F 55.9 °F 59% 29.78 in 10.0 mi WNW 6.9 mph - N/A   Clear
2:53 AM 70.0 °F 55.9 °F 61% 29.78 in 10.0 mi WNW 6.9 mph - N/A   Clear
3:53 AM 69.1 °F 57.0 °F 65% 29.77 in 10.0 mi West 8.1 mph - N/A   Clear
4:53 AM 69.1 °F 57.0 °F 65% 29.77 in 10.0 mi West 9.2 mph - N/A   Partly Cloudy
5:53 AM 69.1 °F 55.9 °F 63% 29.76 in 10.0 mi West 12.7 mph - N/A   Clear
6:53 AM 70.0 °F 57.0 °F 63% 29.75 in 10.0 mi WNW 15.0 mph 23.0 mph N/A   Clear
7:53 AM 72.0 °F 57.0 °F 59% 29.75 in 10.0 mi NW 20.7 mph 27.6 mph N/A   Clear
8:53 AM 71.1 °F 57.0 °F 61% 29.76 in 10.0 mi NNW 18.4 mph 29.9 mph N/A   Overcast
9:53 AM 71.1 °F 57.9 °F 63% 29.76 in 10.0 mi NW 13.8 mph 23.0 mph N/A   Overcast
10:53 AM 73.0 °F 59.0 °F 61% 29.76 in 10.0 mi NNW 10.4 mph 20.7 mph N/A   Overcast
11:53 AM 72.0 °F 57.9 °F 61% 29.77 in 10.0 mi NNW 18.4 mph 27.6 mph N/A   Overcast
12:53 PM 72.0 °F 59.0 °F 64% 29.77 in 10.0 mi NW 17.3 mph 27.6 mph N/A   Overcast
1:53 PM 73.9 °F 60.1 °F 62% 29.76 in 10.0 mi WNW 16.1 mph 23.0 mph N/A   Mostly Cloudy
2:53 PM 75.0 °F 60.1 °F 60% 29.75 in 10.0 mi NW 17.3 mph 28.8 mph N/A   Mostly Cloudy
3:53 PM 78.1 °F 59.0 °F 52% 29.74 in 10.0 mi NW 16.1 mph 26.5 mph N/A   Mostly Cloudy
4:53 PM 78.1 °F 61.0 °F 56% 29.75 in 10.0 mi NNW 13.8 mph 20.7 mph 0.00 in   Mostly Cloudy
5:53 PM 75.0 °F 61.0 °F 62% 29.74 in 10.0 mi NNW 9.2 mph - 0.00 in   Overcast
6:53 PM 69.1 °F 63.0 °F 81% 29.75 in 7.0 mi North 8.1 mph 19.6 mph 0.01 in Rain Light Rain
7:53 PM 68.0 °F 62.1 °F 81% 29.76 in 10.0 mi NNW 10.4 mph - 0.05 in   Mostly Cloudy
8:53 PM 66.9 °F 62.1 °F 84% 29.77 in 10.0 mi NNW 9.2 mph - 0.00 in   Scattered Clouds
9:53 PM 68.0 °F 63.0 °F 84% 29.78 in 10.0 mi NNW 6.9 mph - N/A   Mostly Cloudy
10:53 PM 66.9 °F 63.0 °F 87% 29.78 in 10.0 mi NNW 8.1 mph - 0.03 in   Overcast
11:53 PM 66.0 °F 61.0 °F 84% 29.77 in 10.0 mi NNW 5.8 mph - N/A   Mostly Cloudy